This demonstration page uses our WeatherBlox Daily Observations layout. Learn more.

Left ArrowRight Arrow

41.12389, -100.76542

Hourly Observations for March 15, 2018

Temp ( °F °C ) Dew Point ( °F °C ) Humidity (%) Winds ( mph kmh ) Pressure ( in mb ) Visibility ( mi km ) Precip ( " mm )
12:53 am 00:53 Clear 37 2.8 28 -2.2 70 70 ESE 7 11 29.78 1009 10 16 0.00 0.00
1:53 am 01:53 Clear 38 3.3 28 -2.2 68 68 ESE 9 15 29.74 1007 10 16 0.00 0.00
2:53 am 02:53 Clear 37 2.8 28 -2.2 70 70 ESE 7 11 29.71 1006 10 16 0.00 0.00
3:53 am 03:53 Clear 33 0.6 26 -3.3 75 75 ESE 7 11 29.70 1006 10 16 0.00 0.00
4:53 am 04:53 Clear 33 0.6 27 -2.8 78 78 E 7 11 29.68 1005 10 16 0.00 0.00
5:53 am 05:53 Clear 33 0.6 26 -3.3 75 75 ESE 7 11 29.67 1005 10 16 0.00 0.00
6:53 am 06:53 Clear 32 0 25 -3.9 75 75 ESE 6 9 29.67 1005 10 16 0.00 0.00
7:53 am 07:53 Clear 30 -1.1 24 -4.4 79 79 ENE 3 6 29.69 1006 10 16 0.00 0.00
8:53 am 08:53 Sunny 36 2.2 29 -1.7 76 76 ENE 6 9 29.69 1005 10 16 0.00 0.00
9:53 am 09:53 Sunny 44 6.7 31 -0.6 60 60 ESE 12 19 29.68 1005 10 16 0.00 0.00
10:53 am 10:53 Sunny 50 10 32 0 50 50 E 9 15 29.66 1005 10 16 0.00 0.00
11:53 am 11:53 Sunny 59 15 31 -0.6 35 35 E 16 26 29.65 1004 10 16 0.00 0.00
12:53 pm 12:53 Sunny 63 17.2 31 -0.6 30 30 E 18 30 29.64 1004 10 16 0.00 0.00
1:53 pm 13:53 Sunny 65 18.3 31 -0.6 28 28 E 20 31 29.60 1003 10 16 0.00 0.00
2:53 pm 14:53 Sunny 66 18.9 32 0 28 28 ESE 25 41 29.57 1002 10 16 0.00 0.00
3:53 pm 15:53 Sunny 64 17.8 32 0 30 30 E 24 39 29.57 1002 10 16 0.00 0.00
4:53 pm 16:53 Sunny 65 18.3 32 0 29 29 ESE 26 43 29.55 1001 10 16 0.00 0.00
5:53 pm 17:53 Sunny 64 17.8 32 0 30 30 ESE 29 46 29.54 1000 10 16 0.00 0.00
6:53 pm 18:53 Sunny 61 16.1 34 1.1 36 36 E 22 35 29.55 1001 10 16 0.00 0.00
7:53 pm 19:53 Clear 56 13.3 32 0 40 40 E 23 37 29.56 1001 10 16 0.00 0.00
8:53 pm 20:53 Clear 52 11.1 32 0 47 47 E 26 43 29.54 1000 10 16 0.00 0.00
9:53 pm 21:53 Mostly Clear 49 9.4 31 -0.6 50 50 E 26 43 29.53 1000 10 16 0.00 0.00
10:53 pm 22:53 Clear 46 7.8 28 -2.2 50 50 E 22 35 29.51 999 10 16 0.00 0.00
11:53 pm 23:53 Clear 45 7.2 27 -2.8 49 49 E 26 43 29.46 998 10 16 0.00 0.00

Powered by AerisWeather